Regional Weather Roundup
Issued by NWS

Home | Current Version | Previous Version | Graphics & Text | Print | Product List | Glossary On
Versions: 1 2 3 4 5 6 7 8 9 10 11 12 13 14 15 16 17 18 19 20 21 22 23 24 25 26 27 28 29 30 31 32 33 34 35 36 37 38 39 40 41 42 43 44 45 46 47 48 49 50
073
ASUS43 KMPX 281701
RWRMN
WEATHER ROUNDUP FOR MINNESOTA
NATIONAL WEATHER SERVICE TWIN CITIES/CHANHASSEN MN
1200 PM CDT THU JUL 28 2016


NOTE: "FAIR" INDICATES FEW OR NO CLOUDS BELOW 12,000 FEET WITH NO
SIGNIFICANT WEATHER AND/OR OBSTRUCTIONS TO VISIBILITY. N/A MEANS
CURRENT SKY AND/OR WEATHER CONDITIONS ARE NOT AVAILABLE.

MNZ060>063-068>070-281800-
   Twin Cities Metro

CITY           SKY/WX    TMP DP  RH WIND       PRES   REMARKS
TWIN CITIES    CLOUDY    68  62  81 N9        30.04S
ST PAUL        CLOUDY    69  63  81 N7        30.03F
CRYSTAL        CLOUDY    68  60  75 N7        30.04S
BLAINE         CLOUDY    70  64  83 N8        30.04F
LAKEVILLE      CLOUDY    68  64  88 N12       30.02F
EDEN PRAIRIE   CLOUDY    68  61  78 N9        30.03S
LAKEVILLE      CLOUDY    68  64  88 N12       30.02F
SOUTH ST PAUL  CLOUDY    69  63  82 N7        30.03S
LAKE ELMO      PTSUNNY   70  64  83 CALM      30.04F
$$
MNZ001>005-007-008-013>017-022>024-027-028-281800-
   Northwest Minnesota

CITY           SKY/WX    TMP DP  RH WIND       PRES   REMARKS
BEMIDJI        MOSUNNY   72  57  60 NW3       30.12R
HALLOCK        SUNNY     70  54  56 N7        30.14F
ROSEAU         SUNNY     68  59  73 E5        30.14S
WARROAD        SUNNY     68  59  73 NE7       30.15R
THIEF RVR FALL MOSUNNY   71  57  61 VRB7      30.14R
CROOKSTON      SUNNY     72  59  64 N8        30.13S
FOSSTON        MOSUNNY   73  61  64 N3        30.12S
DETROIT LAKES  MOSUNNY   72  59  64 CALM      30.12S
MOORHEAD       CLOUDY    75  64  69 CALM      30.10S
PARK RAPIDS    MOSUNNY   74  59  59 CALM      30.10S
MAHNOMEN       FAIR      74  58  57 NE7       30.11S
$$
MNZ006-009>011-018-025>026-281800-
   North Central Minnesota

CITY           SKY/WX    TMP DP  RH WIND       PRES   REMARKS
BAUDETTE       MOSUNNY   69  53  56 VRB3      30.13R
FLAG ISLAND    MOSUNNY   66  52  59 N9        30.13S
INTL FALLS     SUNNY     71  52  50 N8        30.12R
WASKISH        MOSUNNY   72  59  64 W3        30.12S
BIG FORK       MOSUNNY   73  54  49 CALM      30.11S
LONGVILLE      MOSUNNY   73  59  60 N3        30.11R
GRAND RAPIDS   SUNNY     72  56  57 CALM      30.12S
ORR            MOSUNNY   72  52  49 CALM      30.09S
COOK           CLOUDY    70  59  68 W3        30.11S
WALKER         PTSUNNY   72  59  64 N3        30.11S
$$
MNZ012-019>021-037-281800-
   Northeast Minnesota

CITY           SKY/WX    TMP DP  RH WIND       PRES   REMARKS
DULUTH         MOSUNNY   72  54  53 E12       30.11R
ELY            PTSUNNY   70  52  52 CALM      30.12R
HIBBING        PTSUNNY   72  56  57 SE6       30.11S
EVELETH        MOSUNNY   70  56  61 E3        30.12S
DULUTH HARBOR  MOSUNNY   66  61  82 NE15      30.11R
TWO HARBORS    SUNNY     73  59  60 E9        30.09S
SILVER BAY     SUNNY     70  57  64 E10       30.10S
GRAND MARAIS     N/A     66  55  67 NE6       30.11S
$$
MNZ029>031-032-039>041-046>048-054>057-064-281800-
   West Central Minnesota

CITY           SKY/WX    TMP DP  RH WIND       PRES   REMARKS
FERGUS FALLS   PTSUNNY   73  57  56 E3        30.11S
WHEATON        MOSUNNY   75  64  69 CALM      30.11S
MORRIS         CLOUDY    77  57  50 E7        30.08S
ALEXANDRIA     CLOUDY    72  58  61 E7        30.11S
ELBOW LAKE     FAIR      73  61  65 SE6       30.10F
WADENA         CLOUDY    72  61  68 E6        30.11R
GLENWOOD       MOSUNNY   72  61  68 NE12      30.10S
APPLETON       PTSUNNY   72  59  64 NE3       30.08F
BENSON         CLOUDY    72  57  60 SE6       30.08S
ORTONVILLE     CLOUDY    72  61  68 CALM      30.09S
MADISON        CLOUDY    70  59  68 NE6       30.08F
WILLMAR        FAIR      72  61  68 E7        30.08F
$$
MNZ033>034-036-042>043-049>051-058-059-281800-
   Central Minnesota

CITY           SKY/WX    TMP DP  RH WIND       PRES   REMARKS
ST CLOUD       PTSUNNY   71  58  63 NE9       30.08R
SAUK CENTRE    FAIR      70  57  62 NE13      30.10S
PAYNESVILLE    CLOUDY    70  55  59 NE9       30.09S
AITKIN         MOSUNNY   73  52  46 CALM      30.10R
PINE RIVER     PTSUNNY   72  61  68 S3        30.13S
BRAINERD       MOSUNNY   70  52  52 E5        30.11R
STAPLES        PTSUNNY   72  57  60 E3        30.11S
LONG PRAIRIE   FAIR      70  57  64 NE7       30.11R
LITTLE FALLS   PTSUNNY   70  52  52 NE6       30.10S
LITCHFIELD     PTSUNNY   72  63  73 N5        30.07F
BUFFALO        PTSUNNY   68  60  73 N8        30.07F
MAPLE LAKE     PTSUNNY   73  64  74 NE6       30.07F
HUTCHINSON     SUNNY     72  63  72 N7        30.06F
$$
MNZ037-044-045-052-053-281800-
   East Central Minnesota

CITY           SKY/WX    TMP DP  RH WIND       PRES   REMARKS
PRINCETON      PTSUNNY   72  57  60 NE8       30.08R
MORA           CLOUDY    70  57  64 NE5       30.10S
CAMBRIDGE      CLOUDY    72  57  60 NE10      30.05F
RUSH CITY      CLOUDY    71  59  66 NE6       30.08R
MOOSE LAKE     PTSUNNY   70  54  56 NE5       30.08S
HINCKLEY       FAIR      72  59  64 N8        30.09R
CLOQUET        PTSUNNY   70  52  52 E10       30.11S
MCGREGOR       MOSUNNY   70  54  56 E5        30.11R
$$
MNZ071>073-080-081-089-090-097-098-281800-
   Southwest Minnesota

CITY           SKY/WX    TMP DP  RH WIND       PRES   REMARKS
MONTEVIDEO     CLOUDY    72  63  73 E6        30.10S
GRANITE FALLS  CLOUDY    71  63  76 NE5       30.09S
CANBY          CLOUDY    72  61  70 N8        30.09F
MARSHALL       CLOUDY    67  62  84 N7        30.09R
REDWOOD FALLS  CLOUDY    69  61  75 NE7       30.06S
OLIVIA         CLOUDY    70  63  78 NE6       30.06S
PIPESTONE      PTSUNNY   72  61  68 N8        30.08S
WINDOM         CLOUDY    68  63  83 N8        30.07S
WORTHINGTON    CLOUDY    68  62  81 N10       30.07F
JACKSON        CLOUDY    68  61  77 NE9       30.07S
TRACY          CLOUDY    70  64  82 N6        30.08S
SLAYTON        CLOUDY    69  62  78 N8        30.09S HAZE
$$
MNZ065>067-074>077-082>085-091>093-281800-
   South Central Minnesota

CITY           SKY/WX    TMP DP  RH WIND       PRES   REMARKS
MANKATO        CLOUDY    68  61  77 N12       30.04S
NEW ULM        CLOUDY    70  63  78 N5        30.05S
ST JAMES       CLOUDY    64  59  82 NW7       30.06S
FAIRMONT       CLOUDY    68  61  77 NW8       30.04S
GLENCOE        CLOUDY    68  65  89 N8        30.06S
FARIBAULT      CLOUDY    70  64  83 N7        30.02F
OWATONNA       PTSUNNY   70  63  78 N10       30.02S
WASECA         CLOUDY    68  63  83 N9        30.03F
ALBERT LEA     CLOUDY    70  64  83 N9        30.01F
$$
MNZ078>079-086>088-094>096-281800-
   Southeast Minnesota

CITY           SKY/WX    TMP DP  RH WIND       PRES   REMARKS
ROCHESTER      LGT RAIN  68  66  93 N10       30.01S FOG
RED WING       CLOUDY    72  66  83 NE7       30.00F
STANTON        CLOUDY    70  64  83 N8        30.00F
DODGE CENTER   CLOUDY    66  66 100 N10       30.01F
WINONA         CLOUDY    68  64  88 NE6       29.98S
AUSTIN         CLOUDY    68  63  83 N8        30.00F
PRESTON        CLOUDY    68  63  86 N13       29.99S
$$
ABBREVIATIONS USED IN REMARKS
   TC - TEMPERATURES IN CELSIUS
  WCI - WIND CHILL INDEX
   HX - HEAT INDEX
  VSB - VISIBILITY
$$




USA.gov is the U.S. government's official web portal to all federal, state and local government web resources and services.